Regional Weather Roundup
Issued by NWS Grand Forks, ND

Home | Current Version | Previous Version | Graphics & Text | Print | Product List | Glossary On
Versions: 1 2 3 4 5 6 7 8 9 10 11 12 13 14 15 16 17 18 19 20 21 22 23 24 25 26 27 28 29 30 31 32 33 34 35 36 37 38 39 40 41 42 43 44 45 46 47 48 49 50
000
ASUS43 KFGF 052110
RWRFGF
PRAIRIE TO PINES  WEATHER ROUNDUP
NATIONAL WEATHER SERVICE EASTERN NORTH DAKOTA/GRAND FORKS ND
400 PM CDT TUE MAY 05 2015

 **SATELLITE DATA USED TO AUGMENT SKY COVER AT AUTOMATED STATIONS**
 *****  WEATHER ACROSS EASTERN NORTH DAKOTA  *****

CITY           SKY/WX    TMP DP  RH WIND       PRES   REMARKS
GRAND FORKS    MOSUNNY   78  20  11 S17G26    30.01F
GRAND FRKS AFB SUNNY     78  20  11 SW17      30.00F
GRAND FRKS NWS   N/A     77 N/A N/A S10         N/A
DEVILS LAKE    SUNNY     73  30  20 S23       29.98F
FARGO          SUNNY     80  26  13 SE20G26   30.00F
WAHPETON ARPT  CLEAR     77  36  22 S21G29    30.01F
$$

 ***** WEATHER ACROSS CENTRAL AND WESTERN NORTH DAKOTA  *****

CITY           SKY/WX    TMP DP  RH WIND       PRES   REMARKS
BISMARCK       SUNNY     78  30  17 S21G29    29.92F
MINOT          SUNNY     77  29  17 S23G32    29.88F
JAMESTOWN      SUNNY     75  22  13 SE20G31   29.97F
MINOT AFB      SUNNY     79  31  17 S28G36    29.88F
GARRISON         N/A     77  33  20 S21G30    29.89F
WILLISTON      SUNNY     81  43  26 S18G24    29.79F
DICKINSON      MOSUNNY   72  49  44 S26G36    29.85F
HETTINGER      CLOUDY    66  50  56 SE23G31   29.90F
$$

 *****  OTHER AIRPORT OBSERVATIONS IN OUR AREA  *****

CITY           SKY/WX    TMP DP  RH WIND       PRES   REMARKS
WALHALLA       FAIR      75  30  19 S15G28    30.00F
GRAFTON AIRPOR FAIR      75  25  15 S16G24    30.01F
VALLEY CITY AR FAIR      75  27  16 S18G25    30.00F
CANDO          FAIR      75  27  16 S20G31    29.98F
CAVALIER APRT  FAIR      77  25  14 S17G26    30.00F
GWINNER        CLEAR     79  39  24 SE16G23   30.00F
SHEYENNE NWR     N/A     80  33  18 S16       29.95
ROLLA          NOT AVBL
 ***** THE ABOVE OBSERVATIONS ARE NON NWS ARE NOT QUALITY
       CONTROLLED AND MAY MIS-REPORT RAIN FOR SNOW...
$$

  *****  WEATHER ACROSS NORTHERN MINNESOTA  *****

CITY           SKY/WX    TMP DP  RH WIND       PRES   REMARKS
FLAG ISLAND    SUNNY     66  30  26 CALM      30.09F
WARROAD        SUNNY     73  30  20 S10G20    30.08F
ROSEAU         SUNNY     75  16  10 S14G20    30.07F
HALLOCK        SUNNY     79  -8   3 S18G28    30.01F
THF RVR FALLS  SUNNY     75  19  12 SE13G20   30.05F
BAUDETTE       SUNNY     73  21  14 SE13G21   30.09F
WASKISH        SUNNY     75  30  19 SE10G18   30.10F
CROOKSTON      SUNNY     77  23  13 S16G24    30.03F
STEPHEN NDAWN    N/A     79  16   9 S13         N/A
GREENBUSH NDAW   N/A     75  19  12 S15         N/A
$$
  *****  WEATHER ACROSS CENTRAL AND WEST MINNESOTA  *****

CITY           SKY/WX    TMP DP  RH WIND       PRES   REMARKS
FOSSTON        SUNNY     77  21  12 SE12G20   30.06F
BEMIDJI        SUNNY     73  26  17 SE14G21   30.09F
PARK RAPIDS    SUNNY     76  30  18 SE15G26   30.08F
ELBOW LAKE     CLOUDY    73  48  41 SE20      30.05F
WADENA         SUNNY     73  43  33 SE13G23   30.08F
DETROIT LAKES  SUNNY     73  28  19 SE18      30.07F
MOORHEAD       SUNNY     75  25  15 SE18G24   30.02F
FERGUS FALLS   SUNNY     75  41  29 SE17G26   30.04F
MORRIS MN      PTSUNNY   73  50  43 SE29      30.04F
STAPLES        SUNNY     73  39  29 SE14G21   30.09F
$$
  *****  WEATHER ELSEWHERE ACROSS MINNESOTA  *****

CITY           SKY/WX    TMP DP  RH WIND       PRES   REMARKS
DULUTH         SUNNY     69  29  22 SE12      30.17F
INTRNTL FALLS  SUNNY     74  21  13 SE12      30.11F
ELY            SUNNY     70  16  12 S14       30.17F
CLOQUET        SUNNY     70  25  18 E8        30.16F
WHEATON        MOSUNNY   72  48  43 SE23G30   30.03F
BRAINERD       SUNNY     72  36  26 SE10G23   30.12F
HIBBING        SUNNY     74  27  17 SE16G22   30.14F
ALEXANDRIA     PTSUNNY   72  45  37 SE23G30   30.08F
SAINT CLOUD    PTSUNNY   71  43  36 S17G30    30.11F
MINNEAPOLIS    CLOUDY    67  48  50 SE20      30.15F
$$

  *****  WEATHER ACROSS SOUTH DAKOTA  *****

CITY           SKY/WX    TMP DP  RH WIND       PRES   REMARKS
SIOUX FALLS    CLOUDY    68  56  65 SE14      30.02F
BROOKINGS      CLOUDY    66  55  68 SE18G24   30.04F
WATERTOWN      PTSUNNY   71  52  50 SE16G28   30.02F
HURON          PTSUNNY   71  50  47 SE14G22   29.98F
SISSETON         N/A     73  52  47 S25G35    30.00F
ABERDEEN       SUNNY     79  43  27 S18G31    29.96F
MITCHELL       LGT RAIN  67  58  72 S17       30.00F
PIERRE         CLOUDY    68  52  56 SE16      29.93F
MOBRIDGE       PTSUNNY   79  44  28 S21G28    29.90F
RAPID CITY     CLOUDY    61  49  64 S17G25    29.90F
$$

  *****  SOME WEATHER IN NEARBY STATES *****

CITY           SKY/WX    TMP DP  RH WIND       PRES   REMARKS
GLASGOW MT     MOSUNNY   77  40  26 SE15      29.70F
GREAT FALLS MT CLOUDY    71  33  24 VRB5      29.71F
CHEYENNE WY    FOG       48  47  96 S16       29.92F VSB 1/4
SCOTTSBLUFF NE CLOUDY    59  50  72 SE17G23   29.91F
OMAHA NE       CLOUDY    77  59  53 S14       30.01F
DES MOINES IA  CLOUDY    72  64  76 E5        30.07F
DAVENPORT IA   PTSUNNY   68  62  81 E12       30.15F HAZE
CHICAGO IL     CLOUDY    50  49  96 NE12      30.21F FOG
EAU CLAIRE WI  PTSUNNY   68  30  24 SE7G20    30.19F
LA CROSSE WI   LGT RAIN  58  51  78 SE8       30.21F
$$

  *****  SOME NATIONAL WEATHER *****

CITY           SKY/WX    TMP DP  RH WIND       PRES   REMARKS
LA GUARDIA NY  PTSUNNY   80  54  40 S12       30.13F
RALEIGH NC     MOSUNNY   81  57  43 S7        30.25F
ATLANTA GA     MOSUNNY   80  51  36 SE12G17   30.23F
NEW ORLEANS LA PTSUNNY   80  59  48 E15G28    30.11F
OKLAHOMA CITY  RAIN      65  62  90 SE12      29.96F FOG
ALBUQUERQUE NM PTSUNNY   63  42  46 W6        29.90F
SALT LAKE CITY CLOUDY    62  48  60 SW7       29.81F
LOS ANGELES CA PTSUNNY   64  49  57 W8G16     29.98F
BOISE ID       SUNNY     69  24  18 NW15G24   29.84F
SEATTLE WA     PTSUNNY   57  43  59 S13G24    30.07S
$$

*** WEATHER ACROSS MANITOBA...SASKATCHEWAN AND ONTARIO ***
                ***ONTARIO***

CITY           SKY/WX    TMP DP  RH WIND       PRES   REMARKS
GERALDTON      MOSUNNY   66  30  26 SW14      30.20F
THUNDER BAY    MOSUNNY   70  25  18 S18G28    30.22F
SIOUX LOOKOUT  MOSUNNY   70  32  24 SW7       30.14F
TORONTO        CLOUDY    59  43  55 SE7       30.27F
BIG TROUT LK   SUNNY     48  19  32 NW12      30.16F
PICKLE LAKE    PTSUNNY   61  28  29 SW9       30.16F
DRYDEN         SUNNY     70  28  21 S12G20    30.13F
KENORA         MOSUNNY   70  27  19 S12       30.12F
$$
                *** MANITOBA***

CITY           SKY/WX    TMP DP  RH WIND       PRES   REMARKS
BRANDON        PTSUNNY   77  37  24 S17G30    29.93F
DAUPHIN        PTSUNNY   75  34  22 SW13G24   29.89F
ISLAND LAKE    LGT RAIN  36  36 100 CALM      30.20
PILOT MOUND      N/A     75  25  15 S23G33      N/A
THE PAS        CLOUDY    41  36  81 E12G22    30.08F
THOMPSON       MOSUNNY   50  18  27 S2        30.15F
WINNIPEG       PTSUNNY   77  25  14 S20       30.02F
LYNN LAKE      SUNNY     46  16  29 NE8       30.14F
CHURCHILL      MOSUNNY   23  14  68 NW20      30.24R WCI   8
GILLAM         MOSUNNY   43  19  39 W10       30.19F
$$
                ***SASKATCHEWAN***

CITY           SKY/WX    TMP DP  RH WIND       PRES   REMARKS
ESTEVAN        MOSUNNY   77  41  27 SE21G29   29.82F
KINDERSLEY     PTSUNNY   77  30  18 SW10G17   29.67F
LLOYDMINSTER   PTSUNNY   66  41  39 SE22G29   29.70F
PRINCE ALBERT  CLOUDY    61  37  41 E22G29    29.84F
REGINA         MOSUNNY   79  39  24 S18G28    29.75F
YORKTON        SUNNY     77  36  22 S14G24    29.82F
N. BATTLEFORD  SUNNY     66  43  42 E25G32    29.75F
LA RONGE       PTSUNNY   52  28  40 NE14G20   30.01F
SASKATOON      PTSUNNY   68  45  42 SE6       29.76S
SWIFT CURRENT  PTSUNNY   77  34  20 W6        29.67F
$$
NOTE: THESE ARE AUTOMATED STATIONS WITH LIMITED QUALITY CONTROL
      "FAIR" INDICATES FEW OR NO CLOUDS BELOW 12,000 FEET WITH NO
      SIGNIFICANT WEATHER AND/OR OBSTRUCTIONS TO VISIBILITY.
      SKY/WX - SKY CONDITION AND SIGNIFICANT WEATHER.
      TMP - AIR TEMPERATURE.    DP   - DEWPOINT TEMPERATURE.
      RH  - RELATIVE HUMIDITY.  PRES - PRESSURE.
      HX  - HEAT INDEX.         WCI  - WIND CHILL INDEX.
$


USA.gov is the U.S. government's official web portal to all federal, state and local government web resources and services.